Wind_Speed
10 8 3 1 1 3 6 5 2 6 3 0 9 1 3 5 2 4 9 8 18 17 15 13 14 12 10 9 10 10 11 12 12 13 12 14 15 14 14 16 17 18 18 20 20 20 19 21 20
10 3 0 2 3 8 5 4 6 4 6 13 10 6 4 4 4 10 11 15 18 16 14 13 13 11 10 10 10 10 11 10 10 11 11 11 13 13 13 15 17 17 17 20 19 18 17 18 18
4 0 2 3 3 7 5 6 13 10 3 4 5 7 3 3 7 16 9 18 17 15 14 12 12 11 10 9 9 9 10 10 10 10 9 10 10 12 13 13 15 16 17 16 15 16 14 15 17
2 1 2 4 6 4 3 10 9 6 8 8 7 7 5 5 11 6 19 17 16 14 14 13 12 10 10 9 8 8 8 10 10 10 9 8 9 10 12 12 12 13 15 14 14 14 13 12 14
1 1 3 3 4 3 7 9 4 3 4 6 2 5 8 5 5 17 19 17 16 15 13 12 12 10 9 8 8 6 8 7 9 8 9 8 7 8 10 11 11 11 12 12 12 12 11 10 9
1 0 3 3 2 3 5 7 6 5 6 8 11 9 4 2 14 18 17 17 14 14 12 11 11 10 8 8 8 8 7 7 6 8 8 8 7 7 7 8 8 9 10 10 9 9 9 9 6
1 2 2 3 2 2 4 6 4 5 8 7 8 6 3 6 13 16 15 14 13 12 11 10 9 9 9 7 7 7 7 8 6 6 6 7 5 6 5 6 6 7 6 7 7 7 6 6 5
1 1 4 2 5 2 7 3 10 5 6 10 3 5 7 11 17 15 13 13 12 11 10 9 9 9 9 7 6 6 7 8 7 6 5 6 5 4 5 4 4 4 5 5 3 3 2 1 2
3 1 1 3 6 4 10 6 3 2 11 3 5 5 13 21 18 17 14 12 11 10 10 9 8 7 8 9 7 6 5 6 8 7 5 5 4 4 3 4 4 3 4 4 3 3 3 4 4
2 2 3 2 5 8 9 11 8 6 5 4 10 14 20 20 20 19 18 18 16 14 12 10 9 7 6 6 8 7 8 6 7 7 6 5 4 4 4 3 4 3 4 5 5 6 5 4 4
2 2 3 5 5 15 12 8 4 12 4 4 14 18 17 18 17 16 15 14 15 13 12 12 10 9 7 6 8 6 7 7 6 6 5 4 4 5 4 4 4 4 4 5 4 4 4 5 5
3 7 6 3 9 11 12 8 7 5 2 9 20 22 21 17 17 18 16 14 13 13 12 11 10 9 9 7 7 6 5 5 5 6 7 6 5 5 7 6 5 5 6 6 6 6 6 7 7
7 4 8 6 7 11 10 5 4 3 9 14 18 17 19 17 19 17 14 13 13 14 13 12 10 11 10 10 9 9 8 6 5 5 7 7 5 5 5 7 7 6 6 6 7 7 7 7 8
5 11 7 7 9 5 7 4 1 5 12 15 18 19 16 17 20 17 17 17 15 14 14 12 12 12 13 12 11 10 9 7 5 4 4 5 5 6 6 6 7 8 8 9 9 8 8 8 9
8 8 6 5 4 2 7 4 3 12 13 14 17 15 14 14 14 17 20 18 14 13 13 14 13 13 14 14 13 12 8 7 5 4 4 6 5 3 3 3 6 7 7 9 8 11 12 10 10
4 2 3 6 7 6 3 5 6 14 15 15 15 14 13 14 18 19 16 15 14 12 16 13 13 15 16 15 13 10 9 10 6 4 3 4 5 4 3 3 5 6 7 8 7 8 10 8 8
2 3 4 2 10 7 8 5 8 15 15 14 14 14 14 10 13 17 14 14 13 16 14 16 16 17 16 14 13 10 8 9 7 5 4 4 4 5 4 5 5 6 6 7 7 7 6 6 7
3 4 2 5 7 10 9 15 9 17 18 18 15 14 14 15 15 17 14 11 10 10 12 14 12 15 15 12 10 8 8 6 8 8 7 6 7 7 7 6 8 8 7 7 8 9 7 8 9
3 3 2 3 3 7 13 13 11 17 17 17 17 15 15 15 14 15 15 12 10 9 11 12 14 13 13 11 8 6 8 7 9 9 9 9 9 11 10 9 8 8 10 10 10 10 7 8 7
3 4 2 2 2 5 4 10 8 17 22 20 19 17 17 13 12 17 15 13 12 12 11 12 15 15 16 11 8 4 4 5 7 9 11 11 10 11 11 10 8 8 9 11 11 11 6 7 5
2 3 4 5 2 1 6 5 5 7 14 14 15 16 16 18 16 12 15 15 12 13 13 14 17 15 13 12 10 7 5 5 6 5 8 7 8 8 9 10 10 10 9 9 8 8 8 9 9
3 2 4 6 6 3 4 6 4 4 9 15 15 17 17 17 14 13 14 14 14 14 13 12 15 14 13 12 11 9 6 6 5 8 6 4 5 3 3 3 5 6 6 6 7 8 9 11 13
1 1 1 3 1 2 4 4 4 2 5 9 14 15 15 14 14 14 15 15 14 13 10 10 13 14 18 16 14 12 10 7 6 3 2 2 2 3 3 4 2 3 3 1 1 2 7 13 12
3 2 3 2 2 4 5 4 7 2 2 2 6 11 12 12 11 12 15 14 15 12 8 10 12 11 12 12 11 12 10 6 2 3 2 1 2 4 3 4 3 4 3 4 5 7 7 11 12
2 2 2 1 2 3 4 5 9 6 5 2 4 7 8 9 12 12 13 15 16 15 11 9 8 7 8 9 10 8 8 6 2 3 3 5 4 4 4 4 4 4 4 4 3 4 5 6 7
1 2 1 3 2 5 2 5 7 1 6 5 2 4 8 10 11 13 14 17 17 15 12 10 6 4 6 7 8 7 7 4 4 5 5 6 5 4 3 2 2 3 3 2 2 3 3 4 4
5 4 1 3 1 3 1 7 13 5 3 7 5 7 9 10 11 14 17 18 18 18 15 17 18 17 12 8 7 7 7 7 7 7 6 5 5 3 4 4 3 4 4 2 1 1 2 3 3
5 10 3 0 3 6 4 5 9 9 6 8 7 8 10 10 12 13 15 18 17 15 14 15 15 18 12 5 7 8 9 9 8 6 4 3 3 4 5 5 5 5 6 6 4 1 2 2 3
5 4 2 2 3 6 8 5 6 9 11 11 11 10 11 12 13 14 15 17 17 17 14 13 7 10 11 11 11 10 8 6 5 5 4 2 2 3 4 4 5 6 6 6 5 4 4 4 4
4 7 8 6 5 3 4 8 2 8 8 9 12 11 11 11 12 12 15 18 18 18 15 14 11 8 11 12 13 11 9 7 5 3 3 3 2 1 2 3 6 6 5 6 6 6 5 4 4
Wind_Direction
126 134 142 275 12 48 52 69 54 112 116 224 145 218 109 47 23 77 134 144 143 142 141 143 138 135 133 116 100 94 94 88 92 91 90 87 93 86 80 79 84 101 106 103 103 99 98 100 108
142 147 248 59 47 61 56 47 74 49 112 117 94 101 65 79 69 121 133 147 145 144 144 147 150 145 134 114 101 94 97 90 94 93 95 93 95 93 83 77 80 92 102 101 100 102 101 101 104
127 283 356 56 57 53 59 82 112 104 109 107 102 59 61 54 113 139 142 147 146 144 143 148 140 137 128 118 111 106 93 92 104 94 88 94 98 99 91 86 85 88 95 101 102 99 99 103 101
287 110 84 52 48 59 66 131 117 104 85 57 102 70 84 87 133 147 146 148 147 144 143 148 144 141 133 123 110 95 98 100 101 104 98 95 93 100 107 100 94 94 97 99 95 100 98 95 96
322 45 57 58 43 32 109 127 133 61 81 65 88 91 100 127 129 144 150 153 151 148 149 148 140 141 137 126 116 119 106 107 104 106 104 110 97 100 94 106 107 103 101 100 106 109 113 104 100
55 16 71 65 52 75 91 107 93 87 102 115 98 106 111 106 145 153 155 156 158 153 153 150 157 150 136 129 111 115 114 121 116 110 106 104 116 103 108 105 105 108 111 109 113 114 111 100 112
15 59 93 128 127 136 120 114 100 104 117 96 117 104 93 147 155 156 161 160 160 158 157 156 152 147 136 136 132 125 115 119 127 124 119 113 102 116 111 121 122 123 126 130 132 134 138 129 112
168 147 140 153 184 150 129 95 125 105 77 125 109 164 163 171 159 159 162 166 166 169 171 167 158 158 151 145 140 134 136 130 125 130 121 112 127 111 113 130 123 143 146 144 153 163 173 116 145
165 168 205 175 179 133 144 129 136 113 141 96 15 132 145 151 158 159 166 174 183 187 188 181 178 170 166 157 153 158 149 145 144 133 140 145 137 119 130 175 161 175 179 169 178 204 212 227 245
232 199 178 173 157 149 147 145 141 150 142 76 91 102 134 154 168 173 179 184 192 198 199 196 187 184 183 177 169 183 174 176 165 156 157 153 158 173 166 182 195 208 209 200 207 204 217 236 247
158 334 102 52 111 143 143 140 120 150 199 182 157 146 153 164 180 188 195 195 195 197 204 206 200 196 194 201 205 209 199 194 185 177 184 182 190 196 203 199 209 219 223 230 237 246 243 248 248
133 58 55 73 138 144 150 138 120 151 116 154 163 157 161 174 186 194 199 198 199 206 210 213 214 208 208 211 218 229 227 230 201 201 202 207 213 229 224 222 220 232 229 228 229 229 235 241 247
111 69 55 98 130 132 135 150 149 116 142 145 153 164 173 179 185 194 204 207 206 208 214 214 217 223 221 223 228 232 238 236 228 205 217 217 235 233 234 230 234 239 248 250 251 246 249 258 262
94 89 88 94 109 125 147 124 291 163 160 152 166 175 185 190 188 192 200 210 208 212 215 218 220 224 232 235 234 242 241 242 251 219 217 231 249 247 240 256 237 239 244 256 254 254 255 256 263
112 99 102 99 113 100 140 191 230 162 179 173 178 180 191 195 190 209 209 211 212 214 217 219 221 224 231 237 242 244 250 255 260 265 245 246 254 233 238 241 236 240 249 258 259 243 245 252 258
102 131 174 169 156 166 230 269 185 173 178 191 189 190 194 197 201 223 220 215 214 218 220 222 216 225 232 238 249 254 259 253 258 250 242 245 246 240 238 254 258 255 265 266 256 257 254 269 279
205 260 234 251 193 165 209 266 195 179 193 197 199 202 202 195 207 219 222 221 214 219 221 219 214 227 228 237 241 250 256 249 233 235 227 238 237 245 242 262 269 277 277 267 276 279 285 291 295
217 243 225 253 198 204 202 247 201 195 199 205 201 207 212 209 210 206 205 202 190 194 202 193 189 234 231 226 231 236 246 233 235 250 245 249 255 250 255 259 274 279 275 282 275 280 275 278 283
153 234 237 256 216 209 232 251 214 207 211 212 209 205 214 219 206 196 190 199 194 190 203 195 188 208 207 198 208 216 237 237 243 259 256 257 254 251 257 257 261 269 277 278 274 277 279 286 277
17 308 338 258 109 220 287 270 246 206 216 215 214 209 214 211 206 206 207 204 199 204 206 203 191 191 199 204 215 213 236 234 252 272 271 270 269 253 254 254 264 262 269 279 288 284 289 266 260
3 29 338 335 334 153 300 271 237 226 228 228 233 232 224 217 206 194 197 207 208 215 201 201 200 191 204 211 219 211 226 259 277 301 309 288 271 272 256 251 268 272 280 285 280 268 261 285 273
320 220 309 328 340 329 331 325 279 227 244 227 230 223 228 225 215 198 194 198 200 198 191 188 206 223 218 222 226 215 225 252 284 311 298 277 268 284 255 268 280 263 269 295 280 294 281 277 279
355 175 4 13 314 305 21 295 290 258 300 249 223 228 222 224 216 196 192 191 188 188 181 189 208 221 226 240 229 214 230 252 278 312 343 326 272 244 278 307 304 244 238 319 11 356 331 304 280
79 251 55 94 349 271 14 306 293 314 319 353 222 223 219 219 196 183 187 179 175 178 170 167 183 204 200 208 223 216 231 256 261 272 291 354 159 80 85 62 71 78 68 54 38 342 293 262 263
177 16 357 275 16 330 343 281 272 299 299 262 170 156 169 170 158 158 165 166 169 176 170 160 172 178 190 201 208 217 234 261 225 216 148 127 120 102 83 68 32 39 27 19 354 286 264 254 266
124 277 216 271 292 305 343 261 296 313 328 194 163 131 146 154 153 156 160 161 164 161 153 142 150 168 177 191 196 213 234 185 143 125 118 115 119 101 77 40 23 10 351 2 225 240 258 271 268
156 210 97 169 87 275 248 277 279 276 186 181 157 141 161 160 155 155 162 166 167 163 160 170 163 161 164 186 199 184 169 149 132 128 117 105 97 92 80 83 89 83 82 88 116 225 266 271 283
233 142 182 224 239 280 268 277 261 292 225 179 176 166 163 161 159 159 162 164 161 166 174 180 191 160 148 153 162 154 152 152 137 127 107 76 72 86 94 89 89 91 85 79 83 62 356 328 306
161 193 83 184 234 273 280 262 233 256 278 186 187 176 166 170 169 164 158 162 161 164 178 188 164 135 153 159 154 148 141 133 122 113 98 56 21 65 95 94 100 93 75 57 32 1 343 331 320
217 234 194 233 228 228 291 272 171 250 280 174 191 172 165 160 161 161 156 163 167 169 171 173 177 153 154 159 157 148 141 130 115 99 85 65 57 53 93 110 117 95 64 28 6 353 339 342 345
Height
754 755 754 754 767 765 785 786 771 778 778 770 772 778 785 789 793 805 800 803 805 809 812 814 815 816 817 817 818 818 818 819 819 820 821 821 822 822 822 822 823 824 825 826 827 828 829 829 832
755 755 756 756 776 788 789 773 782 777 775 771 775 780 787 798 793 797 801 805 808 810 813 816 816 817 818 818 820 820 821 821 822 822 823 824 825 826 826 825 825 827 828 829 831 832 834 834 834
756 756 756 770 781 791 790 779 780 776 771 773 782 782 789 798 797 799 803 806 809 811 814 816 817 818 819 820 821 822 823 824 824 825 826 826 827 829 829 829 830 830 831 833 834 835 837 838 837
758 756 760 776 789 782 780 778 776 778 776 775 780 791 793 797 800 802 805 808 811 813 815 817 819 820 821 822 823 824 825 826 827 827 828 829 830 830 832 832 833 834 835 835 834 836 838 840 840
759 758 775 784 787 779 773 773 775 781 782 782 781 796 800 801 802 804 806 810 812 815 817 819 820 822 823 824 825 826 827 828 828 830 831 831 832 833 833 834 836 836 836 837 839 840 842 842 844
761 763 784 795 788 780 776 774 777 782 783 785 790 794 801 803 804 806 809 811 814 816 818 820 821 823 825 826 827 828 829 829 830 831 833 834 834 835 835 837 838 839 840 840 841 842 842 843 848
764 769 787 789 790 786 780 773 782 784 786 789 786 799 805 805 807 809 811 813 815 817 819 821 823 825 826 828 829 830 831 831 832 833 834 835 836 837 838 838 840 841 842 843 844 845 846 846 847
759 765 783 783 789 789 776 777 779 782 789 783 785 797 804 803 807 810 812 815 817 819 821 823 824 826 828 830 830 830 831 831 833 834 835 836 837 838 839 840 840 841 843 844 845 845 847 847 848
757 774 785 783 785 782 774 782 779 778 783 784 788 789 792 801 807 810 813 816 818 820 821 823 826 827 828 829 830 831 831 832 833 834 835 836 838 839 840 841 842 843 843 845 845 846 847 848 849
762 774 775 765 765 774 774 776 779 785 787 792 794 795 800 804 807 808 810 813 816 819 821 823 826 828 830 831 829 831 831 832 833 834 835 836 837 839 840 841 842 844 845 845 846 847 848 849 848
763 773 764 766 763 764 775 778 775 784 792 787 793 795 801 804 808 810 812 814 816 819 821 823 825 827 829 831 830 830 829 831 833 833 834 835 837 838 840 841 843 843 845 845 845 845 846 846 847
769 763 763 767 764 768 777 775 782 782 781 777 784 790 797 802 805 808 811 814 817 819 820 823 825 827 828 830 830 831 831 830 832 833 834 835 836 837 838 840 841 842 844 844 845 845 845 846 846
765 766 767 767 767 769 772 780 782 786 779 780 787 794 794 797 802 806 811 813 816 818 820 822 825 826 828 829 829 829 829 830 831 832 832 833 835 836 837 838 839 840 841 841 842 842 843 843 844
765 768 773 772 774 774 780 784 782 787 780 784 789 791 795 797 800 806 808 810 813 817 819 820 823 825 827 828 829 829 828 830 831 830 832 833 834 835 837 837 838 838 839 839 840 840 841 841 842
765 780 776 779 779 782 777 792 788 782 783 787 789 791 794 798 804 805 805 808 812 815 818 819 821 823 825 826 828 829 829 829 831 831 832 833 833 834 835 837 837 837 837 837 837 838 838 838 838
776 778 795 781 780 783 782 795 783 782 784 787 789 791 794 797 801 802 805 808 811 814 814 817 820 821 823 825 827 828 828 829 830 831 832 833 834 834 834 835 835 836 837 836 835 836 836 835 835
784 795 796 790 776 780 786 790 779 781 784 787 788 790 791 796 800 801 804 807 809 810 813 814 817 819 821 824 826 827 828 827 829 830 831 832 833 833 833 834 835 835 836 835 834 834 834 834 834
795 798 791 791 778 779 787 783 780 777 781 782 785 788 790 791 793 798 802 805 807 809 810 812 814 817 821 823 825 826 827 828 829 830 830 831 832 832 832 833 833 834 834 835 834 833 833 833 832
784 789 789 779 771 779 779 777 778 774 778 780 781 785 787 787 792 796 800 804 807 809 810 810 811 814 819 821 825 826 827 827 828 828 829 829 830 830 831 831 832 832 831 832 833 832 831 831 830
782 788 787 777 775 780 782 778 769 771 767 769 775 779 782 785 790 794 798 801 805 807 808 809 809 811 816 820 822 824 825 826 827 828 828 828 828 829 829 829 830 829 829 829 830 830 830 829 828
783 786 786 788 779 780 782 777 776 768 769 770 772 774 775 777 784 789 795 798 802 805 807 808 809 811 815 818 820 822 824 825 826 826 828 827 826 826 826 827 828 828 828 828 828 828 829 828 826
790 777 780 782 786 798 785 796 773 770 770 769 768 769 771 773 779 787 791 795 799 803 805 805 808 811 814 816 819 821 824 823 824 825 825 825 825 825 826 826 826 825 826 826 826 827 827 825 825
783 776 781 783 788 795 791 794 765 775 766 764 763 762 765 768 775 782 787 791 796 799 801 803 805 808 811 813 816 819 822 822 822 823 824 824 825 825 826 826 825 825 824 824 825 826 826 827 826
773 779 784 788 791 799 808 804 774 765 765 761 759 760 763 764 772 779 785 790 795 799 799 800 803 806 809 812 815 818 819 821 820 822 824 823 824 824 824 825 825 824 824 823 824 825 824 823 824
777 787 807 809 810 814 800 806 770 755 755 757 756 758 760 763 769 777 783 788 793 797 798 799 801 805 808 811 813 815 817 819 820 821 822 823 824 825 825 824 825 824 824 824 824 824 825 823 823
784 781 804 834 824 813 801 801 765 753 753 753 753 753 756 762 769 773 781 786 791 794 795 798 800 803 807 810 812 813 815 818 819 821 822 823 824 824 824 824 824 824 824 823 824 825 825 824 823
787 791 781 797 813 812 796 781 755 749 753 754 751 754 757 760 768 773 780 785 789 791 793 793 793 797 804 808 809 811 815 817 818 820 821 823 824 824 823 823 823 822 823 823 823 824 823 822 820
768 770 793 796 823 825 797 801 779 753 749 751 751 752 755 759 767 772 778 783 787 790 791 793 795 798 801 807 810 813 815 817 817 819 821 823 824 823 823 823 823 822 821 821 822 823 821 820 819
780 781 787 786 796 806 809 787 747 749 737 749 744 748 751 757 763 769 775 781 784 787 790 792 796 798 802 808 811 814 816 818 820 821 820 821 823 822 822 822 822 822 821 821 820 820 819 818 816
758 763 767 789 799 802 801 779 741 738 733 742 742 745 749 754 761 766 771 778 781 785 788 791 795 798 801 806 809 812 815 818 821 822 822 822 823 823 822 821 821 821 821 819 819 818 817 816 815